Regional Weather Roundup
Issued by NWS

Home | Current Version | Previous Version | Graphics & Text | Print | Product List | Glossary On
Versions: 1 2 3 4 5 6 7 8 9 10 11 12 13 14 15 16 17 18 19 20 21 22 23 24 25 26 27 28 29 30 31 32 33 34 35 36 37 38 39 40 41 42 43 44 45 46 47 48 49 50
000
ASUS43 KIND 240709
RWRIN

WEATHER ROUNDUP FOR INDIANA
NATIONAL WEATHER SERVICE INDIANAPOLIS IN
300 AM EDT SUN MAY 24 2015

NOTE: "FAIR" INDICATES FEW OR NO CLOUDS BELOW 12,000 FEET WITH NO
SIGNIFICANT WEATHER AND/OR OBSTRUCTIONS TO VISIBILITY.

* - STATION DOES NOT REPORT WEATHER SUCH AS PRECIPITATION OR FOG.

+ - STATION NOT QUALITY CONTROLLED BY THE NATIONAL WEATHER SERVICE.
    USE DATA WITH CAUTION...ESPECIALLY DEWPOINT AND RELATIVE
    HUMIDITY OBSERVATIONS.

INZ001>003-010>013-019-020-240800-
NORTHWEST INDIANA

CITY           SKY/WX    TMP DP  RH WIND       PRES   REMARKS
GARY /AIRPORT/ PTCLDY    55  51  85 CALM      30.21R
KNOX *+        PTCLDY    55  46  71 SE5       30.21S
LA PORTE +     PTCLDY    58  49  71 CALM      30.22F
MICHIGAN CITY+ PTCLDY    55  46  71 CALM      30.22S
MONTICELLO +   PTCLDY    61  48  60 CALM      30.21S
RENSSELAER +   MOCLDY    61  46  59 CALM      30.21S
VALPARAISO     PTCLDY    61  45  55 S5        30.22S

$$

LMZ046-743>745-240800-
SOUTHERN LAKE MICHIGAN

STATION/POSITION TIME  TEMP    WIND        PRES    WAVE
                       AIR SEA DIR/SP/G            HT
                 (UTC) (F)     (DEG/KT/KT) (MB)    (FT)
BURNS HARBOR     0700   66     180/  6/  9 1023.4R
MICHIGAN CITY    0700   67     140/  9/ 11   N/A
5NW MICH CITY    0700   62 54  190/  4/  6   N/A     0

$$

INZ004-005-014>016-021>024-240800-
NORTH CENTRAL INDIANA

CITY           SKY/WX    TMP DP  RH WIND       PRES   REMARKS
GOSHEN         PTCLDY    54  49  83 CALM      30.23S
LOGANSPORT +   PTCLDY    54  43  66 E6        30.23S
PERU/GRISSOM   PTCLDY    58  46  62 SE3       30.22S
ROCHESTER +    PTCLDY    57  50  77 CALM      30.24S
SOUTH BEND     PTCLDY    57  48  72 CALM      30.23S
WARSAW +       PTCLDY    54  46  76 CALM      30.24S

$$

INZ006>009-017-018-025>027-240800-
NORTHEAST INDIANA

CITY           SKY/WX    TMP DP  RH WIND       PRES   REMARKS
ANGOLA *+      CLEAR     52  50  93 CALM      30.24F
AUBURN +       PTCLDY    54  46  76 CALM      30.25S
FORT WAYNE     PTCLDY    59  48  67 S3        30.26S
HUNTINGTON +   PTCLDY    55  47  75 CALM      30.24S

$$

INZ028-029-035-036-043>045-051>053-240800-
WEST CENTRAL INDIANA

CITY           SKY/WX    TMP DP  RH WIND       PRES   REMARKS
CRAWFORDSVL +  PTCLDY    58  44  58 SE5       30.21S
GREENCASTLE +  MOCLDY    59  43  55 CALM      30.23S
LAFAYETTE      MOCLDY    55  48  77 E3        30.21S
TERRE HAUTE    CLOUDY    61  52  72 CALM      30.20S

$$

INZ030>032-037>040-046>048-054>057-064-065-240800-
CENTRAL INDIANA

CITY           SKY/WX    TMP DP  RH WIND       PRES   REMARKS
CP ATTERBURY + CLEAR     50  48  93 CALM      30.24F
FISHERS *+     CLEAR     59  50  72 SE5       30.23F
FRANKFORT +    PTCLDY    58  46  65 E5        30.24S
GREENWOOD *+   CLEAR     63  43  48 SE6       30.24F
INDIANAPOLIS   CLEAR     60  47  61 SE9       30.21F
-EAGLE CREEK   CLEAR     58  48  69 CALM      30.22F
KOKOMO *+      PTCLDY    57  45  62 SE6       30.23F
MARION +       PTCLDY    56  45  67 S6        30.24F
MT COMFORT *+  CLEAR     61  37  41 SE5       30.24F
SHELBYVILLE    CLEAR     65  47  52 SE8       30.23F
ZIONSVILLE +   PTCLDY    58  44  59 SE5       30.24S

$$

INZ033-034-041-042-049-050-058-059-240800-
EAST CENTRAL INDIANA

CITY           SKY/WX    TMP DP  RH WIND       PRES   REMARKS
MUNCIE         CLEAR     62  46  55 S5        30.24F

$$

INZ060-061-067>069-081>083-085>088-240800-
SOUTHWEST INDIANA

CITY           SKY/WX    TMP DP  RH WIND       PRES   REMARKS
EVANSVILLE     CLEAR     63  53  70 NE3       30.19S
HUNTINGBURG *+ CLOUDY    63  48  59 SE7       30.20F
WASHINGTON +   CLOUDY    62  50  64 CALM      30.20S

$$

INZ062-063-066-070>080-084-089>092-240800-
SOUTH CENTRAL AND SOUTHEAST INDIANA

CITY           SKY/WX    TMP DP  RH WIND       PRES   REMARKS
BLOOMINGTON    MOCLDY    58  52  80 CALM      30.23S
MADISON *+     PTCLDY    63  45  51 E5        30.27S
NORTH VERNON + CLEAR     63  48  59 E6        30.25S
SEYMOUR +      PTCLDY    59  50  72 CALM      30.23F

$$



USA.gov is the U.S. government's official web portal to all federal, state and local government web resources and services.